Weather History for Memphis, TN

Change the Weather History Date:

Tuesday, December 31, 2013

  Actual Average Record
Temperature  
Mean Temperature 36 °F 41 °F  
Max Temperature 49 °F 50 °F 79 °F (1951)
Min Temperature 23 °F 33 °F 9 °F (1976)
Degree Days  
Heating Degree Days 29 24  
Month to date heating degree days 685 667  
Since 1 July heating degree days 1270 1164  
Cooling Degree Days 0 0  
Month to date cooling degree days 3 2  
Year to date cooling degree days 2245 2258  
Moisture  
Dew Point 25 °F    
Average Humidity 64    
Maximum Humidity 88    
Minimum Humidity 39    
Precipitation  
Precipitation 0.00 in 0.16 in 3.23 in (1944)
Month to date precipitation 4.82 5.74  
Year to date precipitation 59.43 53.68  
Snow  
Snow 0.00 in 0.00 in 2.00 in (2000)
Month to date snowfall T 0.2  
Since 1 July snowfall T 0.2  
Snow Depth 0.00 in    
Sea Level Pressure  
Sea Level Pressure 30.39 in    
Wind  
Wind Speed 3 mph (SSW)    
Max Wind Speed 9 mph    
Max Gust Speed 14 mph    
Visibility 10 miles    
Events      
T = Trace of Precipitation, MM = Missing Value Source: NWS Daily Summary

Daily Weather History Graph

Daily Weather History Graph

Search for Another Location

Airport:

Trip Planner

Search our weather history database for the weather conditions in past years. The results will help you decide how hot, cold, wet, or windy it might be!

Date:

Astronomy

Dec. 31, 2013 Rise Set
Actual Time 7:07 AM CST 4:58 PM CST
Civil Twilight 6:39 AM CST 5:26 PM CST
Nautical Twilight 6:08 AM CST 5:58 PM CST
Astronomical Twilight 5:37 AM CST 6:28 PM CST
Moon 6:02 AM CST (12/31) 4:32 PM CST (12/31)
Length of Visible Light 10h 46m
Length of Day
9h 50m
Waning Crescent, 1% of the Moon is Illuminated
Dec 31
Waning Crescent
Jan 1
New
Jan 7
First Quarter
Jan 15
Full
Jan 23
Last Quarter

Hourly Weather History & Observations

Time (CST) Temp. Windchill Dew Point Humidity Pressure Visibility Wind Dir Wind Speed Gust Speed Precip Events Conditions
12:54 AM 27.0 °F 23.0 °F 21.9 °F 81% 30.36 in 10.0 mi SSW 3.5 mph - N/A   Partly Cloudy
1:54 AM 26.1 °F - 21.0 °F 81% 30.37 in 10.0 mi Calm Calm - N/A   Partly Cloudy
2:54 AM 24.1 °F 18.2 °F 21.0 °F 88% 30.40 in 10.0 mi SW 4.6 mph - N/A   Clear
3:54 AM 26.1 °F - 21.9 °F 84% 30.39 in 10.0 mi Calm Calm - N/A   Clear
4:54 AM 27.0 °F - 21.9 °F 81% 30.40 in 10.0 mi Calm Calm - N/A   Clear
5:54 AM 24.1 °F - 21.0 °F 88% 30.41 in 10.0 mi Calm Calm - N/A   Clear
6:54 AM 25.0 °F 20.7 °F 21.0 °F 85% 30.44 in 10.0 mi SSW 3.5 mph - N/A   Partly Cloudy
7:54 AM 26.1 °F - 21.9 °F 84% 30.45 in 10.0 mi Calm Calm - N/A   Partly Cloudy
8:54 AM 30.9 °F - 27.0 °F 85% 30.47 in 10.0 mi Calm Calm - N/A   Partly Cloudy
9:54 AM 35.1 °F 32.2 °F 27.0 °F 72% 30.47 in 10.0 mi SSE 3.5 mph - N/A   Partly Cloudy
10:54 AM 39.9 °F - 26.1 °F 58% 30.46 in 10.0 mi Calm Calm - N/A   Partly Cloudy
11:54 AM 42.1 °F - 24.1 °F 49% 30.42 in 10.0 mi Calm Calm - N/A   Partly Cloudy
12:54 PM 46.0 °F - 25.0 °F 44% 30.39 in 10.0 mi Calm Calm - N/A   Partly Cloudy
1:54 PM 46.9 °F - 26.1 °F 44% 30.38 in 10.0 mi South 6.9 mph - N/A   Partly Cloudy
2:54 PM 48.0 °F - 25.0 °F 41% 30.37 in 10.0 mi Calm Calm - N/A   Partly Cloudy
3:54 PM 46.9 °F - 26.1 °F 44% 30.38 in 10.0 mi SSW 8.1 mph - N/A   Partly Cloudy
4:54 PM 42.1 °F 37.7 °F 28.9 °F 60% 30.37 in 10.0 mi WSW 6.9 mph - N/A   Partly Cloudy
5:54 PM 39.0 °F 34.8 °F 30.0 °F 70% 30.36 in 10.0 mi SW 5.8 mph - N/A   Partly Cloudy
6:54 PM 37.9 °F 32.1 °F 28.9 °F 70% 30.37 in 10.0 mi SSW 8.1 mph - N/A   Clear
7:54 PM 35.1 °F 29.3 °F 27.0 °F 72% 30.36 in 10.0 mi South 6.9 mph - N/A   Clear
8:54 PM 36.0 °F - 28.0 °F 73% 30.36 in 10.0 mi Calm Calm - N/A   Clear
9:54 PM 33.1 °F - 26.1 °F 75% 30.36 in 10.0 mi Calm Calm - N/A   Clear
10:54 PM 34.0 °F 31.0 °F 27.0 °F 75% 30.34 in 10.0 mi Variable 3.5 mph - N/A   Clear
11:54 PM 30.9 °F - 25.0 °F 79% 30.32 in 10.0 mi Calm Calm - N/A   Clear